Weather reports worldwide

Advertisment
Herrera del Duque, Spain (8264): temperature & dewpoint: 18.01.2020 02:00:00 - 24.01.2020 02:00:00 (CET)Herrera del Duque, Spain (8264): wind speed & gusts: 18.01.2020 02:00:00 - 24.01.2020 02:00:00 (CET)Herrera del Duque, Spain (8264): wind direction: 18.01.2020 02:00:00 - 24.01.2020 02:00:00 (CET)Herrera del Duque, Spain (8264): reduced air pressure: 18.01.2020 02:00:00 - 24.01.2020 02:00:00 (CET)Herrera del Duque, Spain (8264): visibility: 18.01.2020 02:00:00 - 24.01.2020 02:00:00 (CET)Herrera del Duque, Spain (8264): sunshine duration: 18.01.2020 02:00:00 - 24.01.2020 02:00:00 (CET)Herrera del Duque, Spain (8264): precipitation: 18.01.2020 02:00:00 - 24.01.2020 02:00:00 (CET)
Date & Time tt [°C] td [°C] ff [km/h] ff [kn] fx [km/h] fx [kn] dd ppp [hPa] vv [km] sd [min] rr [mm]
24.01.2020 02:00:00 - - - - - - - - - - -
24.01.2020 01:00:00 8,0 5,9 3 2 5 3 W 1020,1 8 0 -
24.01.2020 00:00:00 8,1 5,8 2 1 5 3 N 1019,9 17 0 0,4
23.01.2020 23:00:00 8,4 5,6 3 2 8 4 N 1019,5 20 0 0,0
23.01.2020 22:00:00 9,4 5,1 5 3 19 11 SW 1019,1 16 0 0,4
23.01.2020 21:00:00 10,7 3,4 11 6 26 14 SSE 1018,3 20 0 0,0
23.01.2020 20:00:00 10,5 3,8 10 6 27 15 SE 1017,8 20 0 0,0
23.01.2020 19:00:00 10,7 4,1 10 6 24 13 ESE 1017,1 20 0 -
23.01.2020 18:00:00 10,5 4,6 13 7 24 13 SE 1017,1 20 0 0,0
23.01.2020 17:00:00 10,6 5,1 17 9 27 14 SE 1016,8 20 0 0,0
23.01.2020 16:00:00 10,5 5,0 11 6 23 13 SE 1016,8 20 0 0,0
23.01.2020 15:00:00 11,1 4,8 11 6 23 12 SE 1016,9 20 0 0,0
23.01.2020 14:00:00 11,0 3,9 12 6 28 15 SE 1017,1 20 0 0,0
23.01.2020 13:00:00 9,0 6,1 5 3 9 5 W 1018,1 20 0 -
23.01.2020 12:00:00 8,1 5,8 6 3 8 5 W 1018,8 20 0 0,0
23.01.2020 11:00:00 7,4 5,8 3 1 6 3 W 1018,8 20 0 0,0
23.01.2020 10:00:00 6,7 5,3 4 2 8 4 WNW 1018,3 16 0 0,0
23.01.2020 09:00:00 6,0 4,5 5 3 8 5 W 1017,9 14 0 0,0
23.01.2020 08:00:00 5,8 4,1 6 4 12 6 W 1017,6 12 0 0,0
23.01.2020 07:00:00 6,2 4,1 2 1 7 4 WNW 1017,3 20 0 -
23.01.2020 06:00:00 6,3 3,8 4 2 14 8 N 1017,3 20 0 0,4
23.01.2020 05:00:00 5,7 3,6 2 1 3 2 NNE 1017,7 20 0 0,6
23.01.2020 04:00:00 5,7 3,4 2 1 5 3 SSW 1017,9 15 0 0,0
23.01.2020 03:00:00 5,3 2,7 3 2 9 5 SE 1017,9 20 0 0,0
23.01.2020 02:00:00 5,9 2,9 4 2 9 5 S 1018,0 20 0 0,0
23.01.2020 01:00:00 6,8 3,2 1 1 6 4 N 1017,8 20 0 -
23.01.2020 00:00:00 8,1 3,8 5 3 17 9 ENE 1017,3 20 0 0,0
22.01.2020 23:00:00 8,4 3,6 9 5 17 9 S 1017,3 20 0 0,0
22.01.2020 22:00:00 7,8 3,6 1 1 12 6 WNW 1017,0 20 0 0,0
22.01.2020 21:00:00 8,7 3,6 9 5 34 18 E 1016,6 20 0 0,0
22.01.2020 20:00:00 8,3 3,2 7 4 16 9 S 1016,5 20 0 0,0
22.01.2020 19:00:00 9,2 3,2 2 1 5 3 S 1015,8 20 0 -
22.01.2020 18:00:00 11,0 3,0 2 1 13 7 ENE 1015,1 20 11 0,0
22.01.2020 17:00:00 11,5 2,5 8 4 19 10 E 1015,1 20 11 0,0
22.01.2020 16:00:00 11,1 1,7 11 6 24 13 ESE 1015,4 20 0 0,0
22.01.2020 15:00:00 11,7 2,5 11 6 23 13 E 1015,5 20 3 0,0
22.01.2020 14:00:00 11,4 2,7 12 6 19 10 E 1016,3 20 2 0,0
22.01.2020 13:00:00 10,1 3,4 12 6 22 12 E 1017,4 20 0 -
22.01.2020 12:00:00 8,9 2,9 10 5 17 9 E 1018,0 20 0 0,0
22.01.2020 11:00:00 7,6 3,0 13 7 22 12 E 1018,0 20 0 0,0
22.01.2020 10:00:00 7,4 3,0 11 6 20 11 E 1017,7 20 0 0,0
22.01.2020 09:00:00 6,7 3,4 10 5 17 9 E 1017,3 20 0 0,2
22.01.2020 08:00:00 6,8 3,4 10 6 18 10 E 1016,9 10 0 0,0
22.01.2020 07:00:00 6,5 3,2 6 4 11 6 ESE 1016,3 20 0 -
22.01.2020 06:00:00 6,1 2,7 4 2 7 4 ENE 1016,5 20 0 0,0
22.01.2020 05:00:00 5,7 2,3 6 4 9 5 W 1016,7 20 0 0,0
22.01.2020 04:00:00 6,0 2,1 3 1 6 4 W 1016,8 20 0 0,0
22.01.2020 03:00:00 6,1 1,9 3 1 13 7 NNE 1017,0 20 0 0,0
22.01.2020 02:00:00 6,2 1,9 6 3 11 6 W 1017,0 20 0 0,0
22.01.2020 01:00:00 6,0 1,5 6 3 15 8 N 1016,9 20 0 -
22.01.2020 00:00:00 6,2 1,3 9 5 22 12 NE 1016,7 20 0 0,0
21.01.2020 23:00:00 6,8 1,5 10 5 21 12 NE 1016,7 20 0 0,0
21.01.2020 22:00:00 7,1 1,7 15 8 26 14 ENE 1016,2 20 0 0,0
21.01.2020 21:00:00 7,3 1,7 13 7 20 11 ENE 1015,7 20 0 0,0
21.01.2020 20:00:00 7,4 1,5 17 9 37 20 NE 1015,4 20 0 0,0
21.01.2020 19:00:00 8,8 0,4 22 12 44 24 ENE 1015,0 20 0 -
21.01.2020 18:00:00 9,0 0,4 11 6 31 17 NE 1014,6 20 0 0,0
21.01.2020 17:00:00 9,2 0,4 23 12 39 21 ENE 1014,0 20 0 0,0
21.01.2020 16:00:00 9,1 0,9 14 8 31 17 NE 1014,0 20 0 0,0
21.01.2020 15:00:00 9,2 0,9 15 8 34 18 NE 1014,5 20 0 0,0
21.01.2020 14:00:00 9,1 0,4 18 10 39 21 NE 1015,3 20 4 0,0
21.01.2020 13:00:00 9,2 0,2 27 15 45 24 ENE 1016,3 20 31 -
21.01.2020 12:00:00 8,7 0,2 11 6 20 11 NE 1017,3 20 29 0,0
21.01.2020 11:00:00 7,1 -1,4 7 4 26 14 NNW 1018,2 20 0 0,0
21.01.2020 10:00:00 5,9 -1,4 21 11 32 18 NE 1018,3 20 1 0,0
21.01.2020 09:00:00 4,9 -2,2 15 8 25 14 E 1018,9 20 0 0,0
21.01.2020 08:00:00 4,3 -2,0 13 7 20 11 NE 1018,7 20 0 0,0
21.01.2020 07:00:00 4,0 -1,7 4 2 29 16 NNE 1019,0 20 0 -
21.01.2020 06:00:00 5,4 -1,2 16 9 27 15 ENE 1018,9 20 0 0,0
21.01.2020 05:00:00 4,3 -1,4 16 9 22 12 NNE 1019,4 20 0 0,0
21.01.2020 04:00:00 4,6 -1,7 10 5 18 10 NNE 1020,1 20 0 0,0
21.01.2020 03:00:00 5,2 -1,7 10 5 15 8 N 1020,5 20 0 0,0
21.01.2020 02:00:00 5,5 -2,0 8 4 16 9 N 1021,0 20 0 0,0
21.01.2020 01:00:00 6,1 -2,0 3 2 41 22 NNE 1021,2 20 0 -
21.01.2020 00:00:00 6,4 -2,0 18 10 44 24 ENE 1021,3 20 0 0,0
20.01.2020 23:00:00 6,6 -2,0 20 11 35 19 NE 1021,0 20 0 0,0
20.01.2020 22:00:00 6,8 -2,7 26 14 47 25 ENE 1020,7 20 0 0,0
20.01.2020 21:00:00 6,7 -2,7 23 12 39 21 NE 1020,8 20 0 0,0
20.01.2020 20:00:00 6,7 -2,7 17 9 36 20 NE 1020,6 20 0 0,0
20.01.2020 19:00:00 6,3 -2,7 14 7 36 19 ENE 1020,4 20 0 -
20.01.2020 18:00:00 7,1 -2,7 15 8 30 16 NE 1020,1 20 21 0,0
20.01.2020 17:00:00 6,2 -2,5 21 11 31 17 NE 1019,8 20 3 0,0
20.01.2020 16:00:00 5,4 -2,2 19 10 35 19 NNE 1020,2 20 0 0,0
20.01.2020 15:00:00 5,9 -2,7 17 9 37 20 NE 1020,6 20 0 0,0
20.01.2020 14:00:00 5,8 -2,7 23 12 31 17 NNE 1021,1 20 0 0,0
20.01.2020 13:00:00 5,0 -3,9 22 12 47 25 ENE 1022,1 20 9 -
20.01.2020 12:00:00 4,5 -4,2 24 13 55 30 ENE 1023,0 20 7 0,0
20.01.2020 11:00:00 5,1 -5,4 35 19 56 30 ENE 1022,0 20 7 0,0
20.01.2020 10:00:00 5,2 -7,8 17 9 45 25 ENE 1022,1 20 0 0,0
20.01.2020 09:00:00 5,4 -10,8 17 9 32 17 ENE 1021,9 20 0 0,0
20.01.2020 08:00:00 5,4 -11,7 18 10 35 19 NE 1021,7 20 0 0,0
20.01.2020 07:00:00 5,5 -12,2 25 14 55 30 ENE 1022,0 20 0 -
20.01.2020 06:00:00 4,7 -8,6 13 7 22 12 NNE 1022,3 20 0 0,0
20.01.2020 05:00:00 5,0 -9,0 14 8 37 20 NE 1022,5 20 0 0,0
20.01.2020 04:00:00 5,8 -11,2 26 14 52 28 ENE 1023,0 20 0 0,0
20.01.2020 03:00:00 6,2 -10,8 27 14 41 22 NE 1023,1 20 0 0,0
20.01.2020 02:00:00 5,6 -9,4 21 11 38 21 NE 1023,8 20 0 0,0
20.01.2020 01:00:00 5,8 -9,4 23 12 45 24 NE 1024,2 20 0 -
20.01.2020 00:00:00 5,6 -7,5 22 12 35 19 NE 1024,5 20 0 0,0
19.01.2020 23:00:00 6,3 -7,5 21 12 40 22 NE 1024,1 20 0 0,0
19.01.2020 22:00:00 7,5 -7,5 26 14 45 25 NE 1023,2 20 0 0,0
19.01.2020 21:00:00 7,9 -7,1 17 9 41 22 NE 1022,6 20 0 0,0
19.01.2020 20:00:00 8,1 -5,4 19 10 38 20 NNE 1022,1 20 0 0,0
19.01.2020 19:00:00 9,0 -5,4 26 14 42 23 NE 1021,6 20 0 -
19.01.2020 18:00:00 9,8 -4,2 20 11 43 23 NNE 1020,7 20 23 0,0
19.01.2020 17:00:00 11,3 -4,2 22 12 51 27 NNE 1020,2 20 32 0,0
19.01.2020 16:00:00 11,3 -1,4 25 13 41 22 NNE 1020,0 20 25 0,0
19.01.2020 15:00:00 11,2 0,0 26 14 39 21 NNE 1020,2 20 41 0,0
19.01.2020 14:00:00 10,2 0,4 18 10 45 24 NE 1021,3 20 5 0,0
19.01.2020 13:00:00 10,9 1,7 23 12 36 19 NNE 1021,3 20 19 -
19.01.2020 12:00:00 10,3 4,6 5 3 10 5 N 1021,9 20 29 0,0
19.01.2020 11:00:00 8,1 4,3 2 1 9 5 ESE 1022,2 20 31 0,0
19.01.2020 10:00:00 6,8 4,1 4 2 7 4 WSW 1022,0 20 41 0,0
19.01.2020 09:00:00 4,1 1,9 4 2 8 5 SW 1022,5 20 0 0,0
19.01.2020 08:00:00 5,1 2,7 5 3 9 5 SSE 1021,6 20 0 0,0
19.01.2020 07:00:00 6,2 3,0 5 3 8 5 S 1021,6 20 0 -
19.01.2020 06:00:00 7,6 3,4 5 3 12 6 WNW 1021,4 20 0 0,0
19.01.2020 05:00:00 8,2 3,4 9 5 17 9 WNW 1021,4 20 0 0,0
19.01.2020 04:00:00 8,6 3,8 10 6 22 12 W 1021,6 20 0 0,0
19.01.2020 03:00:00 8,8 5,0 14 7 21 11 WNW 1021,8 20 0 0,0
19.01.2020 02:00:00 9,3 6,2 12 7 27 15 W 1022,0 20 0 0,0
19.01.2020 01:00:00 9,8 6,5 18 10 32 17 W 1022,2 20 0 -
19.01.2020 00:00:00 10,6 6,1 18 10 42 23 W 1022,7 20 0 0,0
18.01.2020 23:00:00 11,2 6,1 21 11 45 24 W 1023,0 20 0 0,0
18.01.2020 22:00:00 12,2 8,7 25 13 50 27 W 1022,8 20 0 0,0
18.01.2020 21:00:00 13,3 9,7 27 15 49 26 W 1022,2 20 0 0,0
18.01.2020 20:00:00 13,5 10,5 16 8 36 19 WSW 1022,2 20 0 0,0
18.01.2020 19:00:00 12,9 10,4 14 8 27 15 SW 1022,9 20 0 -
18.01.2020 18:00:00 12,6 10,3 12 6 29 16 SW 1023,8 20 0 0,0
18.01.2020 17:00:00 12,6 10,3 14 8 25 14 SW 1024,4 20 0 0,0
18.01.2020 16:00:00 12,2 10,3 11 6 24 13 SW 1025,2 5 1 0,2
18.01.2020 15:00:00 11,8 9,7 12 6 25 13 SSW 1026,1 6 0 0,6
18.01.2020 14:00:00 11,2 8,9 14 8 24 13 SSW 1026,8 4,5 0 0,4
18.01.2020 13:00:00 10,9 8,5 9 5 19 10 S 1028,3 5 0 -
18.01.2020 12:00:00 10,3 7,8 8 5 26 14 SSE 1029,9 5 0 0,4
18.01.2020 11:00:00 9,7 7,4 10 6 21 11 SE 1030,3 6 0 0,6
18.01.2020 10:00:00 9,0 7,6 10 5 18 10 SSE 1030,7 7 0 0,4
18.01.2020 09:00:00 7,5 6,1 2 1 6 4 SSW 1031,6 3,9 0 0,2
18.01.2020 08:00:00 7,2 5,8 4 2 7 4 WSW 1031,3 11 0 0,2
18.01.2020 07:00:00 7,3 5,9 1 1 13 7 ESE 1031,2 8 0 -
18.01.2020 06:00:00 7,3 5,8 6 3 9 5 W 1030,8 16 0 0,0
18.01.2020 05:00:00 7,3 5,5 5 3 9 5 NNE 1030,9 18 0 0,0
18.01.2020 04:00:00 7,4 5,6 4 2 7 4 W 1031,3 18 0 0,0
18.01.2020 03:00:00 7,4 5,3 2 1 6 4 NE 1031,9 19 0 0,0
18.01.2020 02:00:00 7,3 5,3 2 1 16 9 S 1033,0 20 0 0,0

tt = temperature
td = dewpoint
ff = wind speed
fx = gusts
dd = wind direction
ppp = reduced air pressure
vv = visibility
sd = sunshine duration
rr = precipitation

Next stations